(367811) = 2011 AS48

Discovered at Kitt Peak on 2005-09-30 by Spacewatch.

Orbit

Orbit type: Main Belt

Note: WebGL enabled browser required.

epoch2024-03-31.0
epoch JD2460400.5
perihelion date2022-06-28.86598
perihelion JD2459759.36598
argument of perihelion (°)43.10241
ascending node (°)308.24926
inclination (°)4.44554
eccentricity0.1344420
perihelion distance (AU)2.2683850
Tisserand w.r.t. Jupiter3.4
ΔV w.r.t. Earth (km/sec)9.5
semimajor axis (AU)2.6207200
mean anomaly (°)148.94356
mean daily motion (°/day)0.23231270
aphelion distance (AU)2.973
period (years)4.24
P-vector [x]0.98701545
P-vector [y]-0.16019671
P-vector [z]-0.01172624
Q-vector [x]0.14864428
Q-vector [y]0.88329080
Q-vector [z]0.44463721
absolute magnitude17.39
phase slope0.15
uncertainty0
referenceMPEC 2024-C181
observations used175
oppositions12
arc length (days)6711
first opposition used2005
last opposition used2024
residual rms (arc-secs)0.76
perturbers coarse indicatorM-v
perturbers precise indicator003Ek
first observation date used2005-09-30.0
last observation date used2024-02-14.0
computer nameMPCLINUX
JD of orbit computation2456523.312142
perihelion JD uncertainty (days)1.6168E-04
argument of perihelion uncertainty (°)6.5791E-05
ascending node uncertainty (°)5.4847E-05
inclination uncertainty (°)7.9053E-06
eccentricity uncertainty 1.0452E-07
perihelion distance uncertainty (AU)3.0485E-07
Minimum Orbit Intersection Distances (in AU)
for orbit epoch: 2460400.5, reference: E2024-CI1
Mercury1.88991
Venus1.54782
Earth1.26462
Mars0.89249
Jupiter2.43349
Saturn6.28317
Uranus15.4748
Neptune27.3647

Observations

176 total observations over interval: 2005 09 30.28720 – 2024 02 14.378196
These data are available for download (format description).

Date (UT) J2000 RA J2000 Dec Magn Location Ref
2005 09 30.28720 01 24 53.05 +16 41 28.9 20.4 V 691 – Steward Observatory, Kitt Peak-Spacewatch MPS 384055
2005 09 30.30803 01 24 51.98 +16 41 25.9 20.4 V 691 – Steward Observatory, Kitt Peak-Spacewatch MPS 384055
2005 09 30.32892 01 24 50.95 +16 41 22.8 20.3 V 691 – Steward Observatory, Kitt Peak-Spacewatch MPS 384055
2005 10 10.24368 01 16 14.67 +16 06 54.5 20.2 V 691 – Steward Observatory, Kitt Peak-Spacewatch MPS 384055
2005 10 10.26104 01 16 13.68 +16 06 49.8 20.3 V 691 – Steward Observatory, Kitt Peak-Spacewatch MPS 384055
2005 10 10.27841 01 16 12.65 +16 06 45.6 20.1 V 691 – Steward Observatory, Kitt Peak-Spacewatch MPS 384055
2007 01 27.27245 09 20 07.11 +14 52 34.4 21.2 V G96 – Mt. Lemmon Survey MPS 384055
2007 01 27.28024 09 20 06.72 +14 52 36.7 22.0 V G96 – Mt. Lemmon Survey MPS 384055
2007 01 27.28824 09 20 06.21 +14 52 37.0 22.0 V G96 – Mt. Lemmon Survey MPS 384055
2007 01 27.29608 09 20 05.74 +14 52 38.2 21.8 V G96 – Mt. Lemmon Survey MPS 384055
2007 01 27.33338 09 20 03.58 +14 52 45.9 21.5 V G96 – Mt. Lemmon Survey MPS 384055
2007 01 27.34302 09 20 03.01 +14 52 47.3 21.4 V G96 – Mt. Lemmon Survey MPS 384055
2007 01 27.35266 09 20 02.50 +14 52 49.0 21.8 V G96 – Mt. Lemmon Survey MPS 384055
2007 01 27.36230 09 20 01.93 +14 52 50.5 21.6 V G96 – Mt. Lemmon Survey MPS 384055
2007 02 13.24697 09 03 50.32 +15 41 56.9 21.6 V G96 – Mt. Lemmon Survey MPS 384055
2007 02 13.25520 09 03 49.82 +15 41 58.4 21.5 V G96 – Mt. Lemmon Survey MPS 384055
2007 02 13.26370 09 03 49.35 +15 41 59.6 21.1 V G96 – Mt. Lemmon Survey MPS 384055
2009 08 15.25242 23 08 57.57 -01 31 03.9 20.7 V 691 – Steward Observatory, Kitt Peak-Spacewatch MPS 384055
2009 08 15.27001 23 08 56.87 -01 31 05.0 20.4 V 691 – Steward Observatory, Kitt Peak-Spacewatch MPS 384055
2009 08 15.28512 23 08 56.28 -01 31 05.3 20.1 V 691 – Steward Observatory, Kitt Peak-Spacewatch MPS 384055
2010 12 06.39523 08 16 00.19 +22 13 34.2 20.8 V G96 – Mt. Lemmon Survey MPS 384055
2010 12 06.40546 08 16 00.12 +22 13 34.4 20.9 V G96 – Mt. Lemmon Survey MPS 384055
2010 12 06.41575 08 15 59.86 +22 13 34.4 20.8 V G96 – Mt. Lemmon Survey MPS 384055
2010 12 06.42601 08 15 59.58 +22 13 35.1 22.4 V G96 – Mt. Lemmon Survey MPS 384055
2011 01 03.32504 07 56 37.06 +22 45 41.8 21.2 V G96 – Mt. Lemmon Survey MPS 384055
2011 01 03.33499 07 56 36.42 +22 45 42.9 21.3 V G96 – Mt. Lemmon Survey MPS 384055
2011 01 03.34446 07 56 35.88 +22 45 43.8 20.9 V G96 – Mt. Lemmon Survey MPS 384055
2011 01 12.24965 07 47 27.27 +22 57 49.2   291 – LPL/Spacewatch II MPS 367260
2011 01 12.25362 07 47 27.01 +22 57 49.2   291 – LPL/Spacewatch II MPS 367260
2011 01 12.25778 07 47 26.75 +22 57 49.7   291 – LPL/Spacewatch II MPS 367260
2011 01 14.28707 07 45 18.43 +23 00 13.3 21.0 V G96 – Mt. Lemmon Survey MPS 367260
2011 01 14.29461 07 45 17.96 +23 00 14.0 20.8 V G96 – Mt. Lemmon Survey MPS 367260
2011 01 14.30211 07 45 17.46 +23 00 14.3 20.9 V G96 – Mt. Lemmon Survey MPS 367260
2011 01 14.30956 07 45 16.99 +23 00 14.9 20.8 V G96 – Mt. Lemmon Survey MPS 367260
2011 01 15.26473 07 44 16.65 +23 01 18.5 21.4 V G96 – Mt. Lemmon Survey MPS 367260
2011 01 15.26712 07 44 16.54 +23 01 19.0 21.2 V G96 – Mt. Lemmon Survey MPS 367260
2011 01 15.26921 07 44 16.40 +23 01 19.1 21.3 V G96 – Mt. Lemmon Survey MPS 367260
2011 01 15.27130 07 44 16.22 +23 01 19.7 20.9 V G96 – Mt. Lemmon Survey MPS 367260
2011 01 15.27338 07 44 16.15 +23 01 19.4 20.8 V G96 – Mt. Lemmon Survey MPS 367260
2011 01 30.28708 07 29 18.780 +23 11 46.39 21.2 w F51 – Pan-STARRS 1, Haleakala MPS 384055
2011 01 30.30147 07 29 17.989 +23 11 46.79 21.4 w F51 – Pan-STARRS 1, Haleakala MPS 384055
2011 01 30.31673 07 29 17.137 +23 11 47.05 21.4 w F51 – Pan-STARRS 1, Haleakala MPS 384055
2011 01 30.33108 07 29 16.341 +23 11 47.36 21.4 w F51 – Pan-STARRS 1, Haleakala MPS 384055
2011 01 30.33412 07 29 15.96 +23 11 46.8 21.8 V 291 – LPL/Spacewatch II MPS 384055
2011 01 30.35037 07 29 15.06 +23 11 46.8 22.2 V 291 – LPL/Spacewatch II MPS 384055
2011 01 30.36666 07 29 14.16 +23 11 47.6 21.5 V 291 – LPL/Spacewatch II MPS 384055
2012 03 02.39273 13 18 01.77 -14 07 02.9 21.7 R 291 – LPL/Spacewatch II MPS 414296
2012 03 02.39848 13 18 01.54 -14 07 02.7 21.1 R 291 – LPL/Spacewatch II MPS 414296
2012 03 02.40469 13 18 01.42 -14 07 02.3 21.1 R 291 – LPL/Spacewatch II MPS 414296
2013 07 12.49976 20 43 52.382 -19 12 47.02 20.4 w F51 – Pan-STARRS 1, Haleakala MPS 472137
2013 07 12.51473 20 43 51.631 -19 12 47.95 20.3 w F51 – Pan-STARRS 1, Haleakala MPS 472137
2013 07 12.52973 20 43 50.878 -19 12 48.79 20.4 w F51 – Pan-STARRS 1, Haleakala MPS 472137
2013 07 18.43555 20 38 52.305 -19 18 42.94 19.9 i F51 – Pan-STARRS 1, Haleakala MPS 472137
2013 07 18.44561 20 38 51.737 -19 18 43.59 19.9 i F51 – Pan-STARRS 1, Haleakala MPS 472137
2013 07 18.48093 20 38 49.766 -19 18 45.79 20.2 r F51 – Pan-STARRS 1, Haleakala MPS 472137
2013 07 18.49001 20 38 49.267 -19 18 46.49 20.2 r F51 – Pan-STARRS 1, Haleakala MPS 472137
2013 08 02.39797 20 24 43.514 -19 33 53.95 20.2 w F51 – Pan-STARRS 1, Haleakala MPS 473673
2013 08 02.42527 20 24 41.877 -19 33 55.24 20.1 w F51 – Pan-STARRS 1, Haleakala MPS 473673
2013 08 02.43892 20 24 41.058 -19 33 55.98 20.0 w F51 – Pan-STARRS 1, Haleakala MPS 473673
2014 11 17.40430 06 27 20.143 +28 06 30.21 21.2 w F51 – Pan-STARRS 1, Haleakala MPS 547540
2014 11 17.41733 06 27 19.733 +28 06 30.65 21.1 w F51 – Pan-STARRS 1, Haleakala MPS 547540
2014 11 17.43049 06 27 19.349 +28 06 31.35 21.3 w F51 – Pan-STARRS 1, Haleakala MPS 547540
2014 11 17.44355 06 27 18.954 +28 06 31.86 21.3 w F51 – Pan-STARRS 1, Haleakala MPS 547540
2014 12 03.55871 06 15 45.164 +28 10 46.11 20.7 i F51 – Pan-STARRS 1, Haleakala MPS 551451
2014 12 03.57225 06 15 44.368 +28 10 45.81 21.0 i F51 – Pan-STARRS 1, Haleakala MPS 551451
2014 12 03.58585 06 15 43.608 +28 10 45.59 20.9 i F51 – Pan-STARRS 1, Haleakala MPS 551451
2016 02 10.53496 12 06 36.615 -05 10 48.66 22.0 w F51 – Pan-STARRS 1, Haleakala MPS 682259
2016 02 10.54792 12 06 36.279 -05 10 48.22 22.2 w F51 – Pan-STARRS 1, Haleakala MPS 682259
2016 03 11.42698 11 46 13.756 -03 52 13.00 21.5 w F51 – Pan-STARRS 1, Haleakala MPS 692383
2016 03 11.44016 11 46 13.033 -03 52 08.47 21.5 w F51 – Pan-STARRS 1, Haleakala MPS 692383
2016 03 11.45334 11 46 12.392 -03 52 05.78 21.1 w F51 – Pan-STARRS 1, Haleakala MPS 692383
2016 03 28.13246 11 31 52.29 -02 32 48.3 22.0 V W84 – Cerro Tololo-DECam MPS 804717
2016 03 28.13564 11 31 52.13 -02 32 47.4   W84 – Cerro Tololo-DECam MPS 804717
2016 03 28.13882 11 31 51.97 -02 32 46.5   W84 – Cerro Tololo-DECam MPS 804717
2016 03 28.14200 11 31 51.80 -02 32 45.6   W84 – Cerro Tololo-DECam MPS 804717
2016 03 28.14521 11 31 51.65 -02 32 44.7   W84 – Cerro Tololo-DECam MPS 804717
2016 04 02.31906 11 27 48.560 -02 07 54.72 21.6 w F51 – Pan-STARRS 1, Haleakala MPS 700969
2016 04 02.33156 11 27 47.996 -02 07 50.97 21.5 w F51 – Pan-STARRS 1, Haleakala MPS 700969
2016 04 02.34404 11 27 47.417 -02 07 47.64 21.7 w F51 – Pan-STARRS 1, Haleakala MPS 700969
2016 04 02.35653 11 27 46.822 -02 07 43.92 21.7 w F51 – Pan-STARRS 1, Haleakala MPS 700969
2016 04 03.17714 11 27 10.26 -02 03 52.7 21.1 V 691 – Steward Observatory, Kitt Peak-Spacewatch MPS 700969
2016 04 03.18176 11 27 10.06 -02 03 51.5 21.4 V 691 – Steward Observatory, Kitt Peak-Spacewatch MPS 700969
2016 04 03.18638 11 27 09.84 -02 03 50.9 21.6 V 691 – Steward Observatory, Kitt Peak-Spacewatch MPS 700969
2018 10 22.45254 04 11 43.009 +27 58 51.49 20.6 i F52 – Pan-STARRS 2, Haleakala MPS 930896
2018 10 22.46373 04 11 42.611 +27 58 51.44 20.7 i F52 – Pan-STARRS 2, Haleakala MPS 930896
2018 10 22.48627 04 11 41.856 +27 58 51.85 20.6 i F52 – Pan-STARRS 2, Haleakala MPS 930896
2018 11 05.40429 04 01 30.515 +27 46 25.89 20.7 w F52 – Pan-STARRS 2, Haleakala MPS 936629
2018 11 05.41634 04 01 29.825 +27 46 24.67 20.7 w F52 – Pan-STARRS 2, Haleakala MPS 936629
2018 11 05.42843 04 01 29.141 +27 46 23.35 20.6 w F52 – Pan-STARRS 2, Haleakala MPS 936629
2018 11 05.44084 04 01 28.443 +27 46 21.85 20.6 w F52 – Pan-STARRS 2, Haleakala MPS 936629
2018 11 07.33734 03 59 43.57 +27 42 26.6 20.6 G G96 – Mt. Lemmon Survey MPS 936629
2018 11 07.34325 03 59 43.23 +27 42 25.7 20.9 G G96 – Mt. Lemmon Survey MPS 936629
